SWAS

Last updated on Sun Jun 21 2026 00:03:39 GMT+0000 (Coordinated Universal Time)

1 25560U 98071A 26171.39495998 .00002144 00000+0 13942-3 0 9998 2 25560 69.8943 219.2467 0008695 256.5318 103.4877 15.09639514497753
UTC large
Height (km)
Speed (km/s)
/
Latitude / Longitude
Inclination (degrees)
Orbital Period (minutes)
Azimuth
Elevation
Range (km)
Doppler Factor

Next 0 passes for location: London (51.5072 / 0.1276)

No passes found over London.
SWAS